CLASSIFICA

GRANFONDO CITTA' DI ANDRIA

DIVISIONI:
GF     CLASSIFICA:   ASSOLUTA   
CATEGORIE:   TUTTE    |   ELMT   |   JMT   |   M1   |   M2   |   M3   |   M4   |   M5   |   M6   |   M7   |   M8   |   W1   |   W2  
FILTRO:
  Atleta      Team        Pulisci       Atleti classificati GF: 313  

Cliccare sulle colonne per cambiare ordinamento Pagina:   | 1 | | 2 | | 3 | | 4 | | 5 | | 6 | | 7 |
Azioni Pos. M/F Cat. P.Cat. Pett Naz Atleta Squadra Distacco Batteria TEMPO MEDIA
11M41299AGGIANO ELIAGC AIRONE LEO CONSTRUCTIONS MASCHILE 02:48:38,256 38,07 Km/h
22M118GAROFALO VALERIOASD PEDALE ELETTRICO+00:00 MASCHILE 02:48:38,321 38,07 Km/h
33ELMT1138CARDONE ANTONELLOCICLISPORT2000 FOCUS BIKE TEAM+00:04 MASCHILE 02:48:42,884 38,05 Km/h
44M1211LUCARELLI BARTOLOMEOASD PEDALE ELETTRICO+00:05 MASCHILE 02:48:43,395 38,05 Km/h
55ELMT264TRITTO ANDREAFLLI LOSACCO MAGALETTI BIKE 2000+00:05 MASCHILE 02:48:43,698 38,05 Km/h
66M1359CAZZOLLA ALESSANDROFLLI LOSACCO MAGALETTI BIKE 2000+00:05 MASCHILE 02:48:43,976 38,05 Km/h
77ELMT396CAMPANILE NICOLAASD TEAM MMBIKE ANDRIA+00:06 MASCHILE 02:48:44,160 38,05 Km/h
88ELMT4243GAETA GIULIANO ANTONIOASD CICLO SPORT MODUGNO+00:06 MASCHILE 02:48:44,328 38,05 Km/h
99M142CURTO FRANCESCOGS PICONESE MELENDUGNO+00:06 MASCHILE 02:48:44,375 38,05 Km/h
1010M42306QUARANTA AMBROGIOGS PICONESE MELENDUGNO+00:06 MASCHILE 02:48:44,612 38,05 Km/h
1111M43171ZIZZI PIEROCICLISPORT2000 FOCUS BIKE TEAM+00:06 MASCHILE 02:48:44,939 38,04 Km/h
1212ELMT5145DAMBROSIO ANTONIOGS I LOVE BIKE ALTAMURA+02:33 MASCHILE 02:51:11,000 37,50 Km/h
1313M4469LADDOMADA MICHELEBIKEMANIA ASSOCIAZIONE SPORTIVA DILETTANTISTICA+02:34 MASCHILE 02:51:12,031 37,50 Km/h
1414ELMT6393SPORTILLO COSIMOASD CICLISPORT2000 FOCUS BIKE TEAM+02:34 MASCHILE 02:51:12,129 37,50 Km/h
1515M6161GIORGIO BARTOLOMEOFLLI LOSACCO MAGALETTI BIKE 2000+02:35 MASCHILE 02:51:13,098 37,50 Km/h
1616M3144SPORTELLI DOMENICOASD AMATORI PUTIGNANO+03:11 MASCHILE 02:51:49,633 37,36 Km/h
1717M21329FARANO GIANLUCATEAM FIERAMOSCA BARLETTA+03:53 MASCHILE 02:52:31,081 37,21 Km/h
1818ELMT71GRECO CIROPICONESE MELENDUNO EVO+03:56 MASCHILE 02:52:34,170 37,20 Km/h
1919ELMT83LAROSSA MARCOASD PEDALE ELETTRICO+03:56 MASCHILE 02:52:34,216 37,20 Km/h
2020M22101MAGGESE MICHELEASD TEAM MM BIKE ANDRIA+03:56 MASCHILE 02:52:34,691 37,20 Km/h
2121M32134PINTO MICHELEBIKEMANIA ASSOCIAZIONE SPORTIVA DILETTANTISTICA+03:56 MASCHILE 02:52:34,721 37,20 Km/h
2222M3313NAVEDORO GIUSEPPEASD PEDALE ELETTRICO+03:56 MASCHILE 02:52:34,833 37,20 Km/h
2323M45296MELI VINCENZOBIKEMANIA ASSOCIAZIONE SPORTIVA DILETTANTISTICA+03:56 MASCHILE 02:52:34,963 37,20 Km/h
2424M4689MINIELLO STEFANOASD TEAM MMBIKE ANDRIA+03:57 MASCHILE 02:52:35,164 37,20 Km/h
2525M23364ALBERGA GIUSEPPE CLAUDIOTEAM BIKE REVOLUTION PALO DEL COLLE+03:57 MASCHILE 02:52:35,278 37,20 Km/h
2626M34234CURCI DOMENICOASD AL GIOIA DEL COLLE+03:57 MASCHILE 02:52:35,586 37,20 Km/h
2727M24286PALAZZO GIANLUCAASDILETTANTISTICA DAUNIA CYCLING+03:57 MASCHILE 02:52:35,734 37,20 Km/h
2828ELMT9325PALMITESSA IVANTEAM EUROBIKE+03:58 MASCHILE 02:52:36,203 37,20 Km/h
2929M35126GALEONE ANTONIOBIKEMANIA ASSOCIAZIONE SPORTIVA DILETTANTISTICA+03:58 MASCHILE 02:52:36,442 37,19 Km/h
3030M4755PICARDI GIUSEPPETEAM OROVERDE BITONTO+03:58 MASCHILE 02:52:36,734 37,19 Km/h
3131M1592D'ADAMO ANGELO ANTONELLOPOLICORO BIKE+03:58 MASCHILE 02:52:36,826 37,19 Km/h
3232ELMT1050STRAGAPEDE DOMENICOASD TEAM ALL BIKE RUVO DI PUGLIA+03:59 MASCHILE 02:52:37,292 37,19 Km/h
3333ELMT11292FRANCAVILLA MATTEOASSOCIAZIONE SPORTIVA DILETTANTISTICA BIKE SQUAD SAN SEVERO+03:59 MASCHILE 02:52:37,364 37,19 Km/h
3434M25154MARUCCIO GIANLUCALONGO RACING TEAM+04:00 MASCHILE 02:52:38,406 37,19 Km/h
3535M26368MELE PIER FRANCESCOA NARDUCCI TEAM L COFANO+04:00 MASCHILE 02:52:38,455 37,19 Km/h
3636M1620DAMIANO VINCENZOASD CANUSIUM BIKE+04:00 MASCHILE 02:52:38,856 37,19 Km/h
3737M36429PIETRANGELO FRANCESCOASD FIDELIS CYCLING TEAM+04:01 MASCHILE 02:52:39,496 37,18 Km/h
3838M37210CARBONE FABRIZIOASD ADRIANO DE ZAN CASARANO+04:01 MASCHILE 02:52:39,573 37,18 Km/h
3939M38307CIGNARELLI SAVINOHELLOBIKE TEAM+04:01 MASCHILE 02:52:39,888 37,18 Km/h
4040M39383SCHIAVONE GIOVANNIPOLISPORTIVA TEAM TERMOLI+04:01 MASCHILE 02:52:39,972 37,18 Km/h
4141M4899CICERO MAUROASD TEAM MMBIKE ANDRIA+04:02 MASCHILE 02:52:40,097 37,18 Km/h
4242M1762NOVIELLO DARIOFLLI LOSACCO MAGALETTI BIKE 2000+04:02 MASCHILE 02:52:40,225 37,18 Km/h
4343M51281GIORNETTA ANGELOASDILETTANTISTICA DAUNIA CYCLING+04:02 MASCHILE 02:52:40,356 37,18 Km/h
4444ELMT12253MASTRONARDO GRAZIANOASD GENUSIA BIKE+04:02 MASCHILE 02:52:40,403 37,18 Km/h
4545M5232CHIARELLI PAOLOASD AMATORI PUTIGNANO+04:03 MASCHILE 02:52:41,287 37,18 Km/h
4646M71298D'AVERSA ANTONIOCARBINIA BIKE+04:03 MASCHILE 02:52:41,724 37,18 Km/h
4747M310146FERRULLI VINCENZOGS I LOVE BIKE ALTAMURA+04:03 MASCHILE 02:52:41,924 37,17 Km/h
4848M311394DE CAROLIS GABRIELEASD CICLISPORT2000 FOCUS BIKE TEAM+04:04 MASCHILE 02:52:42,024 37,17 Km/h
4949M27308MELCARNE GIANLUIGIMAGLIANO TEAM+04:04 MASCHILE 02:52:42,475 37,17 Km/h
5050M28279CASTIGLIONE RAIMONDOASDILETTANTISTICA DAUNIA CYCLING+04:04 MASCHILE 02:52:42,737 37,17 Km/h
5151M312215DIOMEDE FABIOASD FREE BIKE TEAM+04:04 MASCHILE 02:52:42,824 37,17 Km/h
5252M49170SEMERARO COSIMOCICLISPORT2000 FOCUS BIKE TEAM+04:05 MASCHILE 02:52:43,632 37,17 Km/h
5353M53297BOTTACCI VITOCARBINIA BIKE+04:05 MASCHILE 02:52:43,732 37,17 Km/h
5454ELMT13305MANFREDI FABIOGS PICONESE MELENDUGNO+04:06 MASCHILE 02:52:44,014 37,17 Km/h
5555M2998CAPUTI LUIGIASD TEAM MMBIKE ANDRIA+04:06 MASCHILE 02:52:44,372 37,17 Km/h
5656ELMT14378DE GIORGI GIANLUCALUPI DELLA MURGIA - MA3A ASD+04:07 MASCHILE 02:52:45,216 37,16 Km/h
5757M41033DAPRILE MASSIMOASD AMATORI PUTIGNANO+04:07 MASCHILE 02:52:45,712 37,16 Km/h
5858M313141ROLLI STEFANOCICLISTICA VERNOLESE+04:07 MASCHILE 02:52:45,716 37,16 Km/h
5959M18105PISTILLO NICOLAASD TEAM MM BIKE ANDRIA+04:08 MASCHILE 02:52:46,980 37,16 Km/h
6060M314173CARLONE MICHELEFLLI LOSACCO MAGALETTI BIKE 2000+04:09 MASCHILE 02:52:47,433 37,15 Km/h
6161M31516PETRUZZI ANGELOASD PEDALE ELETTRICO+04:12 MASCHILE 02:52:50,592 37,14 Km/h
6262M411282LANZA MARIOASDILETTANTISTICA DAUNIA CYCLING+04:12 MASCHILE 02:52:50,805 37,14 Km/h
6363M31653CICCARESE STEFANOGC AIRONE LEO CONSTRUCTIONS+04:16 MASCHILE 02:52:54,791 37,13 Km/h
6464M210408CARPINETA CLAUDIOASD MONTENERO BIKE KMAX+04:18 MASCHILE 02:52:56,031 37,12 Km/h
6565M211404BORRACCINO ALESSANDROASD MONTENERO BIKE KMAX+04:23 MASCHILE 02:53:01,214 37,11 Km/h
6666M19249BORSELLA ANGELOASD EXTREME BIKE+05:34 MASCHILE 02:54:12,646 36,85 Km/h
6767M412117NACCI MICHELEASS SPORT DILETT BICI CLUB OSTUNI+05:53 MASCHILE 02:54:31,359 36,79 Km/h
6868M7247GIANNUZZI GIUSEPPEASD EURONIX TEAM+10:05 MASCHILE 02:58:43,517 35,92 Km/h
6969M110386DICOSOLA LUIGI MARIATEAM EUROBIKE+10:05 MASCHILE 02:58:43,551 35,92 Km/h
7070M317311PIETRANGELO VINCENZONEW BIKE ANDRIA+10:06 MASCHILE 02:58:44,668 35,92 Km/h
7171M62103MUSCI FRANCESCOASD TEAM MM BIKE ANDRIA+10:07 MASCHILE 02:58:45,185 35,92 Km/h
7272M318366ANGELINI ERNESTOA NARDUCCI TEAM L COFANO+10:07 MASCHILE 02:58:45,631 35,91 Km/h
7373M31946VIGLIONE PAOLOASD AMATORI PUTIGNANO+10:08 MASCHILE 02:58:46,373 35,91 Km/h
7474M212319BAVONE ALESSANDROTEAM EUROBIKE+10:08 MASCHILE 02:58:46,951 35,91 Km/h
7575M63157D'ALO' PALMINORHBIKE TEAM+10:10 MASCHILE 02:58:48,619 35,90 Km/h
7676M54127LOIZZO MARIOBIKEMANIA ASSOCIAZIONE SPORTIVA DILETTANTISTICA+10:10 MASCHILE 02:58:48,730 35,90 Km/h
7777M213317CASALINO GIANLUCATEAM 2 RUOTE GIUSSANO ASDILETTANTISTICA+10:10 MASCHILE 02:58:48,931 35,90 Km/h
7878M21495ANTOLINI RAFFAELEASD TEAM MM BIKE ANDRIA+10:11 MASCHILE 02:58:49,354 35,90 Km/h
7979M11194GIGLIO AGOSTINOTEAM EVOLUZIONE+10:12 MASCHILE 02:58:50,565 35,90 Km/h
8080ELMT15159IAIA VINCENZOTEAM AMICI DI SIMONE+10:12 MASCHILE 02:58:50,829 35,90 Km/h
8181M215395SANTORO VITANTONIO DAVIDEASD CICLISPORT2000 FOCUS BIKE TEAM+10:13 MASCHILE 02:58:51,471 35,89 Km/h
8282M21643SANESE SAVINOASD AMATORI PUTIGNANO+10:14 MASCHILE 02:58:52,110 35,89 Km/h
8383M41323NARDO' MASSIMILIANOASD CANUSIUM BIKE+10:15 MASCHILE 02:58:53,493 35,89 Km/h
8484M320295LIUZZI CIROBIKEMANIA ASSOCIAZIONE SPORTIVA DILETTANTISTICA+10:16 MASCHILE 02:58:54,408 35,88 Km/h
8585M217172ABBRACCIAVENTO GIUSEPPECICLISPORT2000 FOCUS BIKE TEAM+10:18 MASCHILE 02:58:56,081 35,88 Km/h
8686M112238CHIARIELLO FRANCESCOASD CANUSIUM BIKE+10:23 MASCHILE 02:59:01,523 35,86 Km/h
8787M64163MAZZOTTA LUIGITEAM AMICI DI SIMONE+10:23 MASCHILE 02:59:01,984 35,86 Km/h
8888M414140PALMISANO VITOCICLISPORT2000 FOCUS BIKE TEAM+10:27 MASCHILE 02:59:05,237 35,85 Km/h
8989M218112GIANNUZZI ANTONIOASDILETTANTISTICA ASD TEKNO BIKE PUTIGNANO BA+10:37 MASCHILE 02:59:15,328 35,81 Km/h
9090M415128MANIGRASSO ANTONIOBIKEMANIA ASSOCIAZIONE SPORTIVA DILETTANTISTICA+10:44 MASCHILE 02:59:22,154 35,79 Km/h
9191M113284PAGLIALONGA ALESSANDROASDILETTANTISTICA DAUNIA CYCLING+12:48 MASCHILE 03:01:26,507 35,38 Km/h
921W11316CAIRO ELENASQUADRA TERUN SCALEA+14:11 FEMMINILE 03:02:49,107 35,12 Km/h
932W12396BELLO CATERINAASD CICLISPORT2000 FOCUS BIKE TEAM+14:11 FEMMINILE 03:02:49,461 35,12 Km/h
9492M73266TOTILO PAOLOASD TEAM 20 MIGLIA FOGGIA+14:40 MASCHILE 03:03:18,414 35,02 Km/h
9593M55137FERILLI MASSIMOGC CAPOLEUCA+14:41 MASCHILE 03:03:19,980 35,02 Km/h
9694M416385BORRELLI MICHELEASD CICOGNA LANOTTE BIKE CERIGNOLA+14:42 MASCHILE 03:03:20,102 35,02 Km/h
9795M11448SUSCA ROBERTONRG BIKE+15:07 MASCHILE 03:03:45,408 34,94 Km/h
9896M41754ANCONA LUIGITEAM OROVERDE BITONTO+15:13 MASCHILE 03:03:51,815 34,92 Km/h
9997M56322DEL VECCHIO DOMENICOTEAM EUROBIKE+15:14 MASCHILE 03:03:52,177 34,92 Km/h
10098M321379GRANDOLFO GIANCARLOFLLI LOSACCO MAGALETTI BIKE 2000+15:14 MASCHILE 03:03:52,611 34,91 Km/h
10199ELMT16310GIACONELLA ANTONIONEW BIKE ANDRIA+15:15 MASCHILE 03:03:53,400 34,91 Km/h
102100M21926DAPRILE FULVIOASD AMATORI PUTIGNANO+15:15 MASCHILE 03:03:53,482 34,91 Km/h
103101M65158BENIZIO RAFFAELETEAM AMICI DI SIMONE+15:16 MASCHILE 03:03:54,054 34,91 Km/h
104102M322422MANCINO BERNARDOASD VECCHIE GLORIE CERIGNOLA+15:16 MASCHILE 03:03:54,166 34,91 Km/h
105103M115382ARENA GIOVANNICHIALA CYCLING TEAM LOCOROTONDO+15:16 MASCHILE 03:03:54,251 34,91 Km/h
106104M220230LUCARELLI TOMMASOASD TEAM MURGIA BIKE SANTERAMO+15:16 MASCHILE 03:03:54,694 34,91 Km/h
107105M57232AMENO NICOLAASD TEAM ROAD BIKE+15:16 MASCHILE 03:03:54,746 34,91 Km/h
108106M22122DI NUNNO VALERIOASD CANUSIUM BIKE+15:17 MASCHILE 03:03:55,118 34,91 Km/h
109107M41857DESANTIS SAVERIOASD TEAM ROAD BIKE+15:17 MASCHILE 03:03:55,556 34,91 Km/h
110108M66416SPERA ANTONIOTEAM FIERAMOSCA BARLETTA+15:17 MASCHILE 03:03:55,661 34,91 Km/h
111109M222248DE PASCALE ANTONIOASD CIRCOLO AMATORI DELLA BICI ATRIPALDA+15:17 MASCHILE 03:03:55,785 34,90 Km/h
112110M5824PARADISO GIUSEPPEASD CANUSIUM BIKE+15:17 MASCHILE 03:03:55,964 34,90 Km/h
113111ELMT1772CESANO MIRCOASD CICLO SPORT MODUGNO+15:18 MASCHILE 03:03:56,340 34,90 Km/h
114112M116399MASTRAPASQUA DOMENICOASD TEAM MMBIKE ANDRIA+15:18 MASCHILE 03:03:56,421 34,90 Km/h
115113M117151LORUSSO ANDREALEONESSA DI PUGLIA ALTAMURA+15:18 MASCHILE 03:03:56,720 34,90 Km/h
116114M118153DICURSI SERGIOLONGO RACING TEAM+15:18 MASCHILE 03:03:56,905 34,90 Km/h
117115M59133PINTO ANTONIOBIKEMANIA ASSOCIAZIONE SPORTIVA DILETTANTISTICA+15:19 MASCHILE 03:03:57,304 34,90 Km/h
118116M119237TROIA VINCENZOASD ALLTA MURGIA MTB+15:19 MASCHILE 03:03:57,453 34,90 Km/h
119117M41971POLIMENO GIANLUCAASD CICLISTICA VERNOLESE+15:19 MASCHILE 03:03:57,596 34,90 Km/h
120118M120269LECCE MICHELEASD TEAM PADRE PIO+15:19 MASCHILE 03:03:57,970 34,90 Km/h
121119ELMT18301FERRI GIUSEPPEGC AIRONE LEO CONSTRUCTIONS+15:22 MASCHILE 03:04:00,717 34,89 Km/h
122120M323278BREGLIA RAFFAELEASDILETTANTISTICA DAUNIA CYCLING+15:23 MASCHILE 03:04:01,781 34,89 Km/h
123121ELMT19149CEGLIE ANTONIOLEONESSA DI PUGLIA ALTAMURA+15:28 MASCHILE 03:04:06,596 34,87 Km/h
124122ELMT20300DE SISTO ROCCOGC AIRONE LEO CONSTRUCTIONS+18:20 MASCHILE 03:06:58,111 34,34 Km/h
125123M32445VALLETTI LUCAASD AMATORI PUTIGNANO+18:20 MASCHILE 03:06:58,401 34,34 Km/h
126124M325327RAGNATELA RUGGIEROTEAM EUROBIKE+18:20 MASCHILE 03:06:58,808 34,34 Km/h
127125M420136VASSALLO GIUSEPPEBIKEMANIA ASSOCIAZIONE SPORTIVA DILETTANTISTICA+18:21 MASCHILE 03:06:59,234 34,33 Km/h
128126M326324MATERA CLAUDIOTEAM EUROBIKE+18:21 MASCHILE 03:06:59,308 34,33 Km/h
129127M510427DE PALMA GIUSEPPETEAM EUROBIKE+18:22 MASCHILE 03:07:00,175 34,33 Km/h
130128M511165DE TULLIO GIOVANNIFLLI LOSACCO MAGALETTI BIKE 2000+18:22 MASCHILE 03:07:00,198 34,33 Km/h
131129M223114PALAZZO VITOASDILETTANTISTICA ASD TEKNO BIKE PUTIGNANO BA+18:22 MASCHILE 03:07:00,711 34,33 Km/h
132130M6725SORRENTI ANTONIOASD CANUSIUM BIKE+18:23 MASCHILE 03:07:01,133 34,33 Km/h
133131M327212DI TERLIZZI VINCENZOASD AVIS BIKE RUVO+18:23 MASCHILE 03:07:01,210 34,33 Km/h
134132M74106SOLDATO ALFONSOASD TEAM MM BIKE ANDRIA+18:23 MASCHILE 03:07:01,264 34,33 Km/h
135133M81414MOSCARELLI MICHELETEAM FIERAMOSCA BARLETTA+18:23 MASCHILE 03:07:01,887 34,33 Km/h
136134M421130MASCIA GIOVANNIBIKEMANIA ASSOCIAZIONE SPORTIVA DILETTANTISTICA+18:23 MASCHILE 03:07:01,981 34,33 Km/h
137135M687ELETTRICO ROCCOASD PEDALE ELETTRICO+18:24 MASCHILE 03:07:02,257 34,32 Km/h
138136M512152VALERIO ROCCOLEONESSA DI PUGLIA ALTAMURA+18:24 MASCHILE 03:07:02,459 34,32 Km/h
139137ELMT21272CANDELA ANTONIO 96ASD VELO CLUB STORNARA+18:24 MASCHILE 03:07:02,555 34,32 Km/h
140138M51339LOSAVIO VITOASD AMATORI PUTIGNANO+18:25 MASCHILE 03:07:03,041 34,32 Km/h
141139M514367COFANO LUIGIA NARDUCCI TEAM L COFANO+18:25 MASCHILE 03:07:03,083 34,32 Km/h
142140JMT1224DI BISCEGLIE ANDREAASD TEAM ALL BIKE RUVO DI PUGLIA+18:25 MASCHILE 03:07:03,185 34,32 Km/h
143141M69233TANGORRA FRANCESCOASD TEAM ROAD BIKE+18:25 MASCHILE 03:07:03,696 34,32 Km/h
144142ELMT22380OZIMO FRANCESCOASD VELO CLUB STORNARA+18:25 MASCHILE 03:07:03,811 34,32 Km/h
145143M610415SPERA PASQUALEUPJTARANTO+18:25 MASCHILE 03:07:03,894 34,32 Km/h
146144M224115PEPE NICOLAASDILETTANTISTICA ASD TEKNO BIKE PUTIGNANO BA+18:26 MASCHILE 03:07:04,107 34,32 Km/h
147145M328229CARBOTTI ANGELOASD TEAM MURGIA BIKE SANTERAMO+18:26 MASCHILE 03:07:04,111 34,32 Km/h
148146M329332ALBERGA NICOLAUPJTARANTO+18:26 MASCHILE 03:07:04,963 34,32 Km/h
149147M330289DAMATO ANTONIOASDILETTANTISTICA MARGHERITA BIKE+18:27 MASCHILE 03:07:05,344 34,32 Km/h
150148M33158MELE DOMENICOASD TEAM ROAD BIKE+18:28 MASCHILE 03:07:06,112 34,31 Km/h
151149M42256RUGGIERO FRANCESCOTEAM OROVERDE BITONTO+18:28 MASCHILE 03:07:06,660 34,31 Km/h
152150M33291GRANDOLFO LORENZOASD OVERLAND GIOVINAZZO+18:29 MASCHILE 03:07:07,416 34,31 Km/h
153151M12142PARISI ENRICOASD AMATORI PUTIGNANO+18:32 MASCHILE 03:07:10,552 34,30 Km/h
1543W1317TARANTINI CINZIAASD PEDALE ELETTRICO+23:03 FEMMINILE 03:11:41,008 33,49 Km/h
155152M515417CORTELLINO GIUSEPPETEAM FIERAMOSCA BARLETTA+26:02 MASCHILE 03:14:40,889 32,98 Km/h
156153ELMT23118SEMERANO DOMENICOASS SPORT DILETT BICI CLUB OSTUNI+26:04 MASCHILE 03:14:42,714 32,97 Km/h
157154M225264PARLANTE MICHELEASD TEAM 20 MIGLIA FOGGIA+26:05 MASCHILE 03:14:43,384 32,97 Km/h
158155M82111ORLANDO COSIMOASD TEAM PADRE PIO+26:05 MASCHILE 03:14:43,852 32,97 Km/h
159156M333285PAGLIALONGA GIULIANOASDILETTANTISTICA DAUNIA CYCLING+26:06 MASCHILE 03:14:44,715 32,97 Km/h
160157ELMT24280CONTILLO FABIOASDILETTANTISTICA DAUNIA CYCLING+26:07 MASCHILE 03:14:45,281 32,96 Km/h
161158M516418GIANNELLA ANGELOTEAM FIERAMOSCA BARLETTA+26:07 MASCHILE 03:14:45,378 32,96 Km/h
162159M517413RAIMONDI DONATOASD FIDELIS CYCLING TEAM+26:07 MASCHILE 03:14:45,600 32,96 Km/h
163160M518371RINALDI MICHELETEAM OROVERDE BITONTO+26:08 MASCHILE 03:14:46,184 32,96 Km/h
164161ELMT25273CANDELA ANTONIO 98ASD VELO CLUB STORNARA+26:08 MASCHILE 03:14:46,733 32,96 Km/h
165162M42349CAIATI DOMENICOASD TEAM ALL BIKE RUVO DI PUGLIA+26:10 MASCHILE 03:14:48,074 32,96 Km/h
166163M424122MICCOLI ANDREAASSOCIAZIONE SPORTIVA DILETTANTISTICA TEAM BIKE SPINAZZOLA+26:11 MASCHILE 03:14:49,019 32,95 Km/h
167164M519147ACQUAVIVA MASSIMOLEONESSA DI PUGLIA ALTAMURA+26:13 MASCHILE 03:14:51,067 32,95 Km/h
168165ELMT2635GOFFREDO GIUSEPPEASD AMATORI PUTIGNANO+26:13 MASCHILE 03:14:51,568 32,95 Km/h
169166M334211SCHETTINI ANTONIO VALENTINOASD AMATORI PUTIGNANO+26:13 MASCHILE 03:14:51,821 32,95 Km/h
170167M83428ZAGO WERTHERASD CERTOSA BRAZZO+26:17 MASCHILE 03:14:55,113 32,94 Km/h
171168M425275SCHIAVONE GERARDO ANTONIOASD VELO CLUB STORNARA+26:17 MASCHILE 03:14:55,467 32,94 Km/h
172169M8427DIDONNA LUIGIASD 2 RUOTE MOLA DI BARI+29:25 MASCHILE 03:18:03,998 32,41 Km/h
173170M426419DELVECCHIO NICOLATEAM FIERAMOSCA BARLETTA+29:26 MASCHILE 03:18:04,041 32,41 Km/h
174171M52037LIPPOLIS PIETROASD AMATORI PUTIGNANO+29:26 MASCHILE 03:18:04,471 32,41 Km/h
175172M427381DE PALMA MASSIMILIANOTEAM OROVERDE BITONTO+29:27 MASCHILE 03:18:05,494 32,41 Km/h
176173M428254SPINOSA VITO ANGELOASD GENUSIA BIKE+29:33 MASCHILE 03:18:11,487 32,39 Km/h
177174M122384FUCCI FRANCESCOUCD RIONERO IL VELOCIFERO+29:35 MASCHILE 03:18:13,589 32,39 Km/h
178175M123222CESAREO MICHELEASD TEAM ALL BIKE RUVO DI PUGLIA+29:36 MASCHILE 03:18:14,999 32,38 Km/h
179176M521375ZOTTI EMANUELETEAM OROVERDE BITONTO+29:38 MASCHILE 03:18:16,889 32,38 Km/h
180177M522363CEGLIE NICOLALEONESSA DI PUGLIA ALTAMURA+29:46 MASCHILE 03:18:24,565 32,36 Km/h
181178M335205LIPPOLIS GIANVITOASD AMATORI PUTIGNANO+31:09 MASCHILE 03:19:47,051 32,13 Km/h
182179M429412D' ALESSANDRO SIMONE LUCAASD MONTENERO BIKE KMAX+31:25 MASCHILE 03:20:03,044 32,09 Km/h
183180M523283MASCOLO NICOLAASDILETTANTISTICA DAUNIA CYCLING+31:27 MASCHILE 03:20:05,909 32,08 Km/h
184181M336202SILLETTI MICHELEFLLI LOSACCO MAGALETTI BIKE 2000+31:27 MASCHILE 03:20:05,956 32,08 Km/h
185182M337276LOPORCARO PIETROASD ZHEROEMISSIONI VENOSA+31:28 MASCHILE 03:20:06,801 32,08 Km/h
186183M611274OZIMO ANTONIOASD VELO CLUB STORNARA+31:31 MASCHILE 03:20:09,766 32,07 Km/h
187184M61241MEZZAPESA PATRIZIOASD AMATORI PUTIGNANO+31:33 MASCHILE 03:20:11,078 32,07 Km/h
188185M52470RAHO EDOARDOASD CICLISMO MASSAFRA+31:34 MASCHILE 03:20:12,579 32,07 Km/h
189186M525265SURIANO CARMELOASD TEAM 20 MIGLIA FOGGIA+32:01 MASCHILE 03:20:39,539 31,99 Km/h
190187M613315LACERENZA NICOLAPOLISPORTIVA TEAM TERMOLI+32:01 MASCHILE 03:20:39,883 31,99 Km/h
191188ELMT27219MININNO GIUSEPPEASD QUARATBIKE+33:06 MASCHILE 03:21:44,094 31,82 Km/h
192189M338227SOLOFRIZZO ANGELOASD TEAM ERMETIKA+33:43 MASCHILE 03:22:21,292 31,73 Km/h
193190M430288BARILE MICHELEASDILETTANTISTICA MARGHERITA BIKE+33:44 MASCHILE 03:22:22,201 31,72 Km/h
194191M526143PIZZOLANTE ANTONIOGC CAPOLEUCA+33:44 MASCHILE 03:22:22,727 31,72 Km/h
195192M7518VOLPE PIETROASD PEDALE ELETTRICO+33:45 MASCHILE 03:22:23,627 31,72 Km/h
196193M431169MUSCA ANTONIOACLI SAN PANCRAZIO SALENTINO ASD+33:45 MASCHILE 03:22:23,880 31,72 Km/h
197194M43288ISI VITOASD I PIRATI+33:46 MASCHILE 03:22:24,368 31,72 Km/h
198195M85290MARRONE PASQUALEASDILETTANTISTICA MARGHERITA BIKE+33:46 MASCHILE 03:22:24,370 31,72 Km/h
199196M433421SURIANO GIUSEPPEASD FIDELIS CYCLING TEAM+33:46 MASCHILE 03:22:24,798 31,72 Km/h
200197M434377MASTRONICOLA ONOFRIOTEAM OROVERDE BITONTO+33:47 MASCHILE 03:22:25,080 31,72 Km/h
201198M61430BIASI PIETROASD AMATORI PUTIGNANO+33:47 MASCHILE 03:22:25,267 31,72 Km/h
202199M339392MANTRONE VITOCICLISPORT2000 FOCUS BIKE TEAM+33:47 MASCHILE 03:22:25,903 31,71 Km/h
203200M340291RICCO SALVATOREASDILETTANTISTICA MARGHERITA BIKE+33:48 MASCHILE 03:22:26,482 31,71 Km/h
204201M124206PIZZUTILO MAURIZIOASD AMATORI PUTIGNANO+33:48 MASCHILE 03:22:26,854 31,71 Km/h
205202M341335SFRECOLA SAVINOVELOSPRINT BARLETTA ASD+33:50 MASCHILE 03:22:28,255 31,71 Km/h
206203M435400REALE NICOLAASD GASPARRE CICLI LIBERI E FORTI+33:51 MASCHILE 03:22:29,006 31,71 Km/h
207204M615166LAPOLLA CLAUDIOUCD RIONERO IL VELOCIFERO+33:51 MASCHILE 03:22:29,572 31,70 Km/h
208205ELMT2815LIPPOLIS FRANCESCOSPES ALBEROBELLO+33:59 MASCHILE 03:22:37,822 31,68 Km/h
209206M436405LAVIOLA LORENZOASD MONTENERO BIKE KMAX+36:12 MASCHILE 03:24:50,759 31,34 Km/h
210207M226407DI GIACINTO ALESSIOASD MONTENERO BIKE KMAX+36:13 MASCHILE 03:24:51,006 31,34 Km/h
211208M342389VOLTURNO GENNARONEW BIKE ANDRIA+36:26 MASCHILE 03:25:04,277 31,31 Km/h
212209M527365SCARANO VITO ANTONIOASD TEAM+36:27 MASCHILE 03:25:05,957 31,30 Km/h
213210M528369LEPORE DOMENICOFLLI LOSACCO MAGALETTI BIKE 2000+36:28 MASCHILE 03:25:06,932 31,30 Km/h
214211M529148CAPOZZO GIACOMOLEONESSA DI PUGLIA ALTAMURA+36:29 MASCHILE 03:25:07,115 31,30 Km/h
215212M437261COLUCCELLI ANTONIOASD TEAM 20 MIGLIA FOGGIA+36:32 MASCHILE 03:25:10,752 31,29 Km/h
216213M125398LOCORO GIOVANNIASD TEAM MMBIKE ANDRIA+36:33 MASCHILE 03:25:11,060 31,29 Km/h
217214M12628MASSARI GIUSEPPEASD 2 RUOTE MOLA DI BARI+37:32 MASCHILE 03:26:10,000 31,14 Km/h
218215M43814LATARTARA GIUSEPPE ANGELOSPES ALBEROBELLO+37:37 MASCHILE 03:26:15,958 31,12 Km/h
219216ELMT29309ALBANESE RICCARDONEW BIKE ANDRIA+37:38 MASCHILE 03:26:16,077 31,12 Km/h
220217M43967PARISI MICHELANGELOASD VELOCLUB MOLFETTA+37:40 MASCHILE 03:26:18,122 31,12 Km/h
221218M12781SARACINO LUIGIASD CICLO SPORT MODUGNO+37:41 MASCHILE 03:26:19,300 31,12 Km/h
222219M227402CHIRONNA ALESSANDROASD IL VELOCIPEDE BARI+37:43 MASCHILE 03:26:21,519 31,11 Km/h
223220M440228SORRENTI NICOLAASD TEAM ERMETIKA+37:45 MASCHILE 03:26:23,319 31,11 Km/h
224221M128120LALUZ AARON PAULASSOCIAZSPORTDILETTANTISTICA 2 RUOTE MOLA DI BARI+37:50 MASCHILE 03:26:28,398 31,09 Km/h
225222M129221CAMPANALE FRANCESCOASD TEAM ALL BIKE RUVO DI PUGLIA+37:50 MASCHILE 03:26:28,618 31,09 Km/h
226223JMT2424DIBARTOLOMEO GIOVANNIASD VECCHIE GLORIE CERIGNOLA+37:50 MASCHILE 03:26:28,651 31,09 Km/h
227224ELMT30135SANTORO ANGELOBIKEMANIA ASSOCIAZIONE SPORTIVA DILETTANTISTICA+37:53 MASCHILE 03:26:31,126 31,09 Km/h
228225M616129MANIGRASSO LUIGIBIKEMANIA ASSOCIAZIONE SPORTIVA DILETTANTISTICA+37:53 MASCHILE 03:26:31,744 31,09 Km/h
2294W215COLASUONNO ROSAASD PEDALE ELETTRICO+37:57 FEMMINILE 03:26:35,848 31,07 Km/h
230226M530271TERRACCIANO GIOVANNIASD TEAM PADRE PIO+38:17 MASCHILE 03:26:55,280 31,03 Km/h
231227M441218D INTRONO VITOASD QUARATBIKE+38:52 MASCHILE 03:27:30,449 30,94 Km/h
232228M343323FIORE ALESSANDROTEAM EUROBIKE+38:52 MASCHILE 03:27:30,486 30,94 Km/h
233229M442391MARZO ALESSIOCICLISPORT2000 FOCUS BIKE TEAM+40:24 MASCHILE 03:29:02,777 30,71 Km/h
234230M76294SCIANCALEPORE VINCENZOAVIS BIKE RUVO+41:01 MASCHILE 03:29:39,532 30,62 Km/h
2355W14123ALABRESE CARMENBIKEMANIA ASSOCIAZIONE SPORTIVA DILETTANTISTICA+41:49 FEMMINILE 03:30:27,902 30,50 Km/h
236231M531200DI BENEDETTO PASQUALEASD VELO CLUB STORNARA+43:59 MASCHILE 03:32:37,138 30,19 Km/h
237232M532403MAZZONE FRANCESCOASD ALLTA MURGIA MTB+43:59 MASCHILE 03:32:37,689 30,19 Km/h
238233M34474DELL'AQUILA NICOLOASD CICLO SPORT MODUGNO+44:00 MASCHILE 03:32:38,814 30,19 Km/h
239234M443155MAGGIORE ANTONIOMESAGNE ON BIKE+44:04 MASCHILE 03:32:42,869 30,18 Km/h
240235M77116CARROZZO GREGORIOASS SPORT DILETT BICI CLUB OSTUNI+44:06 MASCHILE 03:32:44,694 30,18 Km/h
241236M345131MITA ANTONIOBIKEMANIA ASSOCIAZIONE SPORTIVA DILETTANTISTICA+44:17 MASCHILE 03:32:55,752 30,15 Km/h
242237M533406DI LISIO GENNAROASD MONTENERO BIKE KMAX+44:30 MASCHILE 03:33:08,345 30,12 Km/h
243238M346410MORRONE GIOVANNIASD MONTENERO BIKE KMAX+44:30 MASCHILE 03:33:08,727 30,12 Km/h
244239M444411SPINOZZI CLAUDIOASD MONTENERO BIKE KMAX+44:31 MASCHILE 03:33:09,384 30,12 Km/h
245240M534409ROSSI NICOLAASD MONTENERO BIKE KMAX+44:32 MASCHILE 03:33:10,117 30,12 Km/h
246241M44538LOBIANCO PAOLOASD AMATORI PUTIGNANO+45:47 MASCHILE 03:34:25,669 29,94 Km/h
247242M347258CANNATO NICOLAASD OVERLAND GIOVINAZZO+45:47 MASCHILE 03:34:25,673 29,94 Km/h
248243M13073COLAIZZO GIUSEPPEASD CICLO SPORT MODUGNO+46:00 MASCHILE 03:34:38,604 29,91 Km/h
249244M535240PAGANO VITOASD CANUSIUM BIKE+48:14 MASCHILE 03:36:52,395 29,60 Km/h
250245M228420CRISTIANI FRANCESCOASD FIDELIS CYCLING TEAM+48:15 MASCHILE 03:36:53,614 29,60 Km/h
251246M617245CHIETI GIOVAMBATTISTAASD CICOGNA LANOTTE BIKE CERIGNOLA+49:00 MASCHILE 03:37:38,687 29,50 Km/h
252247ELMT31326PORRECA STEFANOTEAM EUROBIKE+50:28 MASCHILE 03:39:06,268 29,30 Km/h
253248M7836LAPORTA FRANCESCOASD AMATORI PUTIGNANO+51:02 MASCHILE 03:39:40,526 29,22 Km/h
254249M446256LUONGO MASSIMINOASD LUPI IRPINI+51:28 MASCHILE 03:40:06,602 29,17 Km/h
255250M79244FIGLIOLIA RICCARDOASD CICLOAVIS+51:28 MASCHILE 03:40:06,727 29,17 Km/h
2566W22104MUSCI OTTAVIAASD TEAM MM BIKE ANDRIA+52:57 FEMMINILE 03:41:35,332 28,97 Km/h
257251ELMT32220NESTA VITOASD QUARATBIKE+53:15 MASCHILE 03:41:53,505 28,93 Km/h
258252M131213MENGA VINCENZO MATTIAASD AVIS BIKE RUVO+53:18 MASCHILE 03:41:56,698 28,93 Km/h
259253M229388CARBONE ALESSANDRONEW BIKE ANDRIA+53:27 MASCHILE 03:42:05,516 28,91 Km/h
260254M447251CORDISCO NICOLAASD FREE BIKE TEAM FOGGIA+54:28 MASCHILE 03:43:06,942 28,77 Km/h
261255M34831CASTELLANA GREGORIOASD AMATORI PUTIGNANO+54:30 MASCHILE 03:43:08,657 28,77 Km/h
262256M230387BERNOCCOLO TOMMASONEW BIKE ANDRIA+54:32 MASCHILE 03:43:10,066 28,77 Km/h
263257M132113LUPARELLI FABIOASDILETTANTISTICA ASD TEKNO BIKE PUTIGNANO BA+54:33 MASCHILE 03:43:11,160 28,77 Km/h
264258M349208AMERUOSO VINCENZOASD 2 RUOTE MOLA DI BARI+54:33 MASCHILE 03:43:11,579 28,76 Km/h
265259M448423DIBARTOLOMEO GIUSEPPEASD VECCHIE GLORIE CERIGNOLA+54:34 MASCHILE 03:43:12,998 28,76 Km/h
266260M8634DI BITONTO FRANCESCOASD AMATORI PUTIGNANO+54:36 MASCHILE 03:43:14,487 28,76 Km/h
267261M536201DEL PIANO MICHELEFLLI LOSACCO MAGALETTI BIKE 2000+54:37 MASCHILE 03:43:15,093 28,76 Km/h
268262M231226VALENTE GIUSEPPEASD TEAM ALL BIKE RUVO DI PUGLIA+54:37 MASCHILE 03:43:15,804 28,76 Km/h
269263M44977LOIACONO CRISTIANOASD CICLO SPORT MODUGNO+54:40 MASCHILE 03:43:18,527 28,75 Km/h
270264M618142APOLLONIO BIAGINO GIUSEPPECSI TERRA DOTRANTO+54:49 MASCHILE 03:43:27,900 28,73 Km/h
271265ELMT33362ANGELASTRI FELICELEONESSA DI PUGLIA ALTAMURA+55:06 MASCHILE 03:43:44,324 28,69 Km/h
2727W23263MASTRANGELO GRAZIAASD TEAM 20 MIGLIA FOGGIA+58:33 FEMMINILE 03:47:11,289 28,26 Km/h
273266M619320CAMPANILE GIOVANNITEAM EUROBIKE+58:55 MASCHILE 03:47:33,837 28,21 Km/h
274267M537252ZEFILIPPO MICHELEASD FREE BIKE TEAM FOGGIA+59:18 MASCHILE 03:47:56,187 28,17 Km/h
275268M350376SARACINO VINCENZOTEAM OROVERDE BITONTO+01:00:22 MASCHILE 03:49:00,336 28,03 Km/h
276269M450203CARLUCCI DARIO RAFFAELEA S D TALOS RUVO DI PUGLIA+01:00:23 MASCHILE 03:49:01,955 28,03 Km/h
277270M87370VENEZIANI ANTONIOFLLI LOSACCO MAGALETTI BIKE 2000+01:00:24 MASCHILE 03:49:02,432 28,03 Km/h
278271M451374IAQUINTA LUIGITEAM OROVERDE BITONTO+01:00:25 MASCHILE 03:49:03,146 28,03 Km/h
279272M351373RUGGIERO PASQUALETEAM OROVERDE BITONTO+01:00:30 MASCHILE 03:49:08,192 28,02 Km/h
280273M88331DEGIRARDIS MODESTOUCC VITO DALESSANDRO ASD+01:00:32 MASCHILE 03:49:10,330 28,01 Km/h
281274ELMT34207RICCHI STEFANOASD AMATORI PUTIGNANO+01:00:36 MASCHILE 03:49:14,437 28,01 Km/h
282275M352216CATALANO ANTONIOASD FREE BIKE TEAM FOGGIA+01:03:46 MASCHILE 03:52:24,035 27,62 Km/h
283276M89259PAPARELLA MICHELEASD OVERLAND GIOVINAZZO+01:03:46 MASCHILE 03:52:24,402 27,62 Km/h
284277M538426MARRONE ANGELOASD FIDELIS CYCLING TEAM+01:03:53 MASCHILE 03:52:31,219 27,61 Km/h
285278M539250LAMPITELLI NICOLAASD FIDELIS CYCLING TEAM+01:03:53 MASCHILE 03:52:31,622 27,61 Km/h
286279M452260REDAVID PAOLOASD SOUTH BIKE CLUB+01:03:53 MASCHILE 03:52:31,941 27,61 Km/h
287280M353236NAPOLITANO NICOLA MARIAASD ALLTA MURGIA MTB+01:03:57 MASCHILE 03:52:35,574 27,60 Km/h
288281M354293ALICINO EMANUELEASSOCIZIONE SPORTIVA DILETTANTISTICA XMANIA MTB+01:03:57 MASCHILE 03:52:35,794 27,60 Km/h
289282M355333GATTI FILIPPOVELO CLUB ADELFIA+01:08:33 MASCHILE 03:57:11,099 27,07 Km/h
290283M133121MANCINI PASQUALEASSOCIAZSPORTDILETTANTISTICA 2 RUOTE MOLA DI BARI+01:08:34 MASCHILE 03:57:12,241 27,07 Km/h
291284M356268ANIELLO RICCARDOASD TEAM MMBIKE ANDRIA+01:11:30 MASCHILE 04:00:08,827 26,73 Km/h
292285M453401DICORATO SAVINOASD TEAM MMBIKE ANDRIA+01:11:30 MASCHILE 04:00:08,908 26,73 Km/h
293286M134372PRIORE MICHELETEAM OROVERDE BITONTO+01:11:31 MASCHILE 04:00:09,229 26,73 Km/h
294287M620257RUZZA GENEROSOASD LUPI IRPINI+01:11:31 MASCHILE 04:00:09,279 26,73 Km/h
295288M232204QUATELA GIUSEPPEA S D TALOS RUVO DI PUGLIA+01:11:31 MASCHILE 04:00:09,601 26,73 Km/h
296289ELMT35312ABBRACCIAVENTO FRANCESCONEW CYCLING TEAM+01:12:54 MASCHILE 04:01:32,393 26,58 Km/h
297290M540246CLEMENTE MATTEOASD CICOGNA LANOTTE BIKE CERIGNOLA+01:19:13 MASCHILE 04:07:51,069 25,90 Km/h
298291M710425SCARPONE FRANCOPOLISPORTIVA TEAM TERMOLI+01:19:54 MASCHILE 04:08:32,453 25,83 Km/h
299292ELMT36267RASCHIA EMANUELEASD TEAM BIKE SIMONE RASCHIA+01:19:55 MASCHILE 04:08:33,300 25,83 Km/h
300293M54175DI CEGLIE GIUSEPPEASD CICLO SPORT MODUGNO+01:19:56 MASCHILE 04:08:34,809 25,83 Km/h
301294M542242CAMASTA RAIMONDOASD CICLO SPORT MODUGNO+01:19:57 MASCHILE 04:08:35,486 25,83 Km/h
302295M543334RUTIGLIANO RUGGIEROVELOSPRINT BARLETTA ASD+01:21:35 MASCHILE 04:10:13,323 25,66 Km/h
303296M454223COSENTINO PAOLO FRANCESCOASD TEAM ALL BIKE RUVO DI PUGLIA+01:30:21 MASCHILE 04:18:59,206 24,79 Km/h
304297M35786SALAMIDA ANTONIOASD MASTROLEAUTO EUROBICI TRICASE+01:39:47 MASCHILE 04:28:25,035 23,92 Km/h
305298M621214CORVINO DOMENICOASD FREE BIKE TEAM+01:48:30 MASCHILE 04:37:08,320 23,17 Km/h
3068W24430MAZZONE AGATAA S D TALOS RUVO DI PUGLIA+01:52:31 FEMMINILE 04:41:09,535 22,83 Km/h
307299M233235MIRACAPILLO MASSIMOASD ALLTA MURGIA MTB+01:53:49 MASCHILE 04:42:27,261 22,73 Km/h
308300M810328RAMUNDO VITO NICOLATEAM EUROBIKE+01:53:50 MASCHILE 04:42:28,252 22,73 Km/h
309301M81165VITUCCI GIUSEPPEFLLI LOSACCO MAGALETTI BIKE 2000+01:57:41 MASCHILE 04:46:19,447 22,42 Km/h
310302M54482TATONE VITOASD CICLO SPORT MODUGNO+02:02:33 MASCHILE 04:51:11,039 22,05 Km/h
311303M622397MARRONE ANTONIOASD AVIS SAN FERDINANDO DI PUGLIA+02:02:33 MASCHILE 04:51:11,393 22,05 Km/h
312304M545209DE COSMIS FRANCESCOASD 2 RUOTE MOLA DI BARI+02:02:33 MASCHILE 04:51:11,540 22,05 Km/h
313305M35878MAGLIETTI GIOVANNIASD CICLO SPORT MODUGNO+02:02:34 MASCHILE 04:51:12,000 22,05 Km/h
Righe per pagina::     TUTTE    |   30   |   50   |   100   Pagina:   | 1 | | 2 | | 3 | | 4 | | 5 | | 6 | | 7 |